Find Starlink 11743

NORAD ID: 64379 Int'l Des: 2025-127 Owner: SPXS Country: US Constellation: starlink operational
又名: STARLINK-11743 [DTC] celestrak
LEOCIRCULAR

当前视图

正在加载3D地球...

About Starlink 11743

Starlink 11743 (NORAD 64379) is a starlink constellation satellite (v2 mini d2c) launched Jun 13, 2025 by SPXS of US. It operates in LEO, CIRCULAR orbit with a mass of 960.00 kg.

即将过境

Passes for default location (London). Set your location on the main map for personalized predictions.

高度历史

Loading altitude history...

两行轨道根数

1 64379U 25127K 26263.28788730 .00182218 00000-0 13853-2 0 9992
2 64379 42.9989 351.9158 0001495 242.1387 117.9329 15.70965467 74104
Epoch: Sep 20, 2026 • Age: 19 hours

当前状态

高度 360.3 km
远地点 / 近地点 N/A
速度 7.69 km/s
星下点 -24.09°S, 163.56°E
发射日期 Jun 13, 2025
运行时间 1.2 years
类型 internet

技术详情

分类 Payload
质量 960.00 kg
干质量 910.00 kg
长度 0.30 m
跨度 29.00 m
形状 ? Box + pan
制造商 SPXS
平台类型 Starlink V2MD
阶段状态 In Orbit
所有者/国家 SPXS/US

Most Searched